EDT,Max TemperatureF,Mean TemperatureF,Min TemperatureF,Max Dew PointF,MeanDew PointF,Min DewpointF,Max Humidity, Mean Humidity, Min Humidity, Max Sea Level PressureIn, Mean Sea Level PressureIn, Min Sea Level PressureIn, Max VisibilityMiles, Mean VisibilityMiles, Min VisibilityMiles, Max Wind SpeedMPH, Mean Wind SpeedMPH, Max Gust SpeedMPH,PrecipitationIn, CloudCover, Events, WindDirDegrees
2013-8-1,71,69,67,70,66,63,97,85,73,30.01,29.90,29.82,10,5,1,14,5,18,0.97,7,Rain,162
2013-8-2,84,75,66,68,64,58,97,70,43,29.91,29.87,29.80,10,8,4,14,5,20,0.00,2,,279
2013-8-3,76,71,65,67,64,62,90,77,64,29.94,29.89,29.86,10,9,6,12,5,16,0.07,5,Rain,243
2013-8-4,79,71,62,64,57,53,93,68,42,29.98,29.89,29.85,10,9,6,16,7,23,0.00,1,,327
2013-8-5,77,66,55,57,52,47,80,59,38,30.06,30.02,29.99,10,10,10,15,5,24,0.00,0,,315
2013-8-6,79,68,57,62,58,52,93,67,40,30.12,30.07,30.03,10,10,10,16,5,21,0.00,4,,175
2013-8-7,77,72,67,70,65,61,90,80,69,30.13,30.09,30.05,10,10,7,16,7,21,0.03,8,,167
2013-8-8,86,78,70,73,70,67,97,79,61,30.06,30.02,29.97,10,8,2,16,7,22,0.30,6,Rain,199
2013-8-9,84,79,74,76,72,70,94,82,69,29.99,29.88,29.81,10,9,5,16,7,21,0.03,6,Rain,221
2013-8-10,82,75,68,72,64,60,93,72,51,30.04,29.97,29.86,10,10,7,10,4,17,0.00,0,,296
2013-8-11,83,73,62,68,60,54,87,67,46,30.12,30.06,30.00,10,10,10,9,4,14,0.00,2,,8
2013-8-12,83,76,68,69,66,61,93,70,47,30.02,29.98,29.92,10,9,6,9,2,9,T,5,Rain,87
2013-8-13,81,74,67,70,67,64,93,80,67,29.90,29.78,29.70,10,6,1,15,4,25,1.68,6,Rain-Thunderstorm,360
2013-8-14,74,66,57,64,51,47,86,65,44,30.05,29.89,29.76,10,10,10,20,10,32,0.00,1,,328
2013-8-15,77,66,54,55,51,46,89,64,38,30.14,30.10,30.06,10,10,10,13,5,24,0.00,0,,321
2013-8-16,80,67,54,56,53,49,93,65,36,30.19,30.15,30.12,10,10,10,9,3,15,0.00,1,,4
2013-8-17,80,68,55,59,55,53,93,66,39,30.26,30.23,30.20,10,10,10,14,3,17,0.00,1,,163
2013-8-18,75,69,63,63,60,56,90,72,53,30.24,30.19,30.13,10,10,8,9,3,15,0.02,3,Rain,7
2013-8-19,77,70,62,65,62,59,100,78,56,30.14,30.09,30.04,10,8,2,9,4,22,T,1,Rain,267
2013-8-20,87,74,61,67,63,61,93,69,44,30.13,30.09,30.06,10,6,0,8,3,17,0.00,0,Fog,279
2013-8-21,88,76,64,69,63,58,93,65,36,30.18,30.12,30.05,10,9,2,9,2,24,0.00,0,,270
2013-8-22,83,77,70,72,70,68,93,85,76,30.06,29.99,29.88,10,7,1,20,5,26,0.43,5,Rain-Thunderstorm,194
2013-8-23,79,73,67,68,62,55,90,68,45,30.08,29.97,29.89,10,10,7,12,6,22,0.00,1,,333
2013-8-24,79,69,59,58,52,49,84,60,35,30.34,30.24,30.10,10,10,10,14,6,20,0.00,0,,33
2013-8-25,81,68,54,58,53,48,93,64,35,30.40,30.32,30.24,10,10,10,12,3,20,0.00,0,,264
2013-8-26,85,73,61,68,61,55,84,66,47,30.24,30.09,29.92,10,10,8,13,6,20,0.05,1,Rain,237
2013-8-27,86,79,71,68,66,65,84,68,51,29.91,29.87,29.85,10,10,7,13,5,20,0.02,2,Rain,317
2013-8-28,77,73,68,72,71,66,93,85,76,29.89,29.86,29.83,10,4,0,12,2,14,0.33,6,Fog-Rain,21
2013-8-29,81,75,68,70,68,64,93,78,62,30.01,29.95,29.86,10,6,1,10,5,16,0.00,7,,63
2013-8-30,82,75,68,70,67,64,87,75,63,30.03,29.97,29.86,10,9,7,12,6,31,0.00,6,,225
2013-8-31,86,78,70,73,70,66,93,79,65,29.88,29.84,29.78,10,8,5,14,7,18,0.00,4,,211